TimePST,TemperatureF,Dew PointF,Humidity,Sea Level PressureIn,VisibilityMPH,Wind Direction,Wind SpeedMPH,Gust SpeedMPH,PrecipitationIn,Events,Conditions,WindDirDegrees,DateUTC
12:51 AM,46.9,23.0,39,30.12,10.0,Variable,4.6,-,N/A,,Clear,0,2013-01-11 08:51:00
1:51 AM,46.9,19.0,33,30.11,10.0,North,11.5,21.9,N/A,,Clear,350,2013-01-11 09:51:00
2:51 AM,46.9,21.0,36,30.13,10.0,North,11.5,23.0,N/A,,Clear,350,2013-01-11 10:51:00
3:51 AM,46.9,23.0,39,30.16,10.0,North,8.1,18.4,N/A,,Clear,350,2013-01-11 11:51:00
4:51 AM,45.0,24.1,44,30.17,10.0,North,5.8,-,N/A,,Clear,350,2013-01-11 12:51:00
5:51 AM,44.1,24.1,45,30.18,10.0,NW,3.5,-,N/A,,Clear,320,2013-01-11 13:51:00
6:51 AM,42.1,25.0,51,30.19,10.0,NNW,3.5,-,N/A,,Clear,330,2013-01-11 14:51:00
7:51 AM,45.0,26.1,48,30.19,10.0,North,3.5,-,N/A,,Clear,350,2013-01-11 15:51:00
8:51 AM,50.0,25.0,38,30.20,10.0,Calm,Calm,-,N/A,,Clear,0,2013-01-11 16:51:00
9:51 AM,52.0,21.9,31,30.20,10.0,Variable,5.8,-,N/A,,Clear,0,2013-01-11 17:51:00
10:51 AM,53.1,21.9,30,30.18,10.0,Variable,6.9,-,N/A,,Clear,0,2013-01-11 18:51:00
11:41 AM,53.6,23.0,30,30.15,10.0,Variable,4.6,-,N/A,,Clear,0,2013-01-11 19:41:00
11:51 AM,54.0,23.0,30,30.14,10.0,Variable,3.5,-,N/A,,Clear,0,2013-01-11 19:51:00
12:51 PM,53.1,23.0,31,30.11,10.0,WSW,8.1,-,N/A,,Scattered Clouds,240,2013-01-11 20:51:00
1:51 PM,53.1,24.1,32,30.10,10.0,West,8.1,17.3,N/A,,Clear,260,2013-01-11 21:51:00
2:51 PM,53.1,25.0,34,30.08,10.0,West,11.5,-,N/A,,Clear,260,2013-01-11 22:51:00
3:51 PM,53.1,27.0,37,30.08,10.0,WSW,8.1,18.4,N/A,,Clear,240,2013-01-11 23:51:00
4:51 PM,52.0,28.0,40,30.08,10.0,North,5.8,-,N/A,,Clear,350,2013-01-12 00:51:00
5:51 PM,50.0,19.9,31,30.09,10.0,North,5.8,-,N/A,,Clear,360,2013-01-12 01:51:00
6:51 PM,48.9,19.9,32,30.09,10.0,North,10.4,20.7,N/A,,Clear,350,2013-01-12 02:51:00
7:51 PM,48.0,21.0,34,30.09,10.0,North,8.1,19.6,N/A,,Clear,350,2013-01-12 03:51:00
8:51 PM,48.0,19.0,32,30.10,10.0,NW,6.9,-,N/A,,Clear,310,2013-01-12 04:51:00
9:51 PM,46.9,21.9,37,30.11,10.0,Calm,Calm,-,N/A,,Clear,0,2013-01-12 05:51:00
10:51 PM,46.0,25.0,44,30.10,10.0,North,6.9,-,N/A,,Clear,10,2013-01-12 06:51:00
11:51 PM,45.0,25.0,46,30.10,10.0,North,5.8,-,N/A,,Partly Cloudy,10,2013-01-12 07:51:00